Regional Weather Roundup
Issued by NWS Cleveland, OH

Home | Current Version | Previous Version | Graphics & Text | Print | Product List | Glossary On
Versions: 1 2 3 4 5 6 7 8 9 10 11 12 13 14 15 16 17 18 19 20 21 22 23 24 25 26 27 28 29 30 31 32 33 34 35 36 37 38 39 40 41 42 43 44 45 46 47 48 49 50
000
ASUS41 KCLE 211310
RWRCLE
OHIO REGIONAL WEATHER ROUNDUP
NATIONAL WEATHER SERVICE WILMINGTON, OH
900 AM EDT SAT APR 21 2018

NOTE: "FAIR" INDICATES FEW OR NO CLOUDS BELOW 12,000 FEET WITH NO
SIGNIFICANT WEATHER AND/OR OBSTRUCTIONS TO VISIBILITY.

OHZ001>008-015>018-024>027-034-035-043-044-211400-
   NORTHWEST OHIO

CITY           SKY/WX    TMP DP  RH WIND       PRES   REMARKS
DEFIANCE       FAIR      38  30  73 CALM      30.48S
FINDLAY        FAIR      43  27  53 S5        30.48R
TOLEDO EXPRESS FAIR      43  29  57 CALM      30.49R
TOLEDO EXEC    FAIR      42  30  62 CALM      30.50R
LIMA           FAIR      45  26  47 SE9       30.46S
$$

OHZ009>014-019>023-028>033-038-089-211400-
   NORTHEAST OHIO

CITY           SKY/WX    TMP DP  RH WIND       PRES   REMARKS
CLE-HOPKINS    PTSUNNY   40  26  57 CALM      30.51S
CLE-LAKEFRONT  FAIR      40  24  53 CALM      30.49S
CUY CO. ARPT   MOSUNNY   41  30  65 CALM      30.49F
LORAIN-ELYRIA  FAIR      37  26  64 VRB5      30.49S
ASHTABULA      FAIR      36  30  79 CALM      30.50S
AKRON-CANTON   FAIR      41  22  46 CALM      30.47S
WOOSTER        FAIR      38  29  70 E3        30.48S
MANSFIELD      FAIR      42  23  46 E6        30.46S
YOUNGSTOWN     FAIR      39  27  62 E3        30.48S
$$

OHZ042-051>053-060>062-070>072-077>081-211400-
  SOUTHWEST OHIO

CITY           SKY/WX    TMP DP  RH WIND       PRES   REMARKS
CINC-COVINGTON PTSUNNY   46  25  43 E10       30.43S
CINC-LUNKEN    FAIR      44  31  60 NE5       30.46S
HAMILTON       FAIR      45  29  53 E3        30.46S
DAYTON         PTSUNNY   44  25  47 E12       30.45F
WRIGHT-PAT AFB PTSUNNY   44  25  47 E6        30.46R
DAYTON GENERAL FAIR      45  22  40 E12       30.43S
WILMINGTON     FAIR      43  27  53 E8        30.45R
$$

OHZ036-037-039>041-045>050-054>059-063>069-073>076-082>088-211400-
  CENTRAL AND SOUTHEAST OHIO

CITY           SKY/WX    TMP DP  RH WIND       PRES   REMARKS
COLUMBUS       FAIR      43  24  47 CALM      30.47S
OSU AIRPORT    FAIR      42  25  50 E6        30.47S
BOLTON FIELD   SUNNY     43  25  49 E5        30.47S
RICKENBACK AFB FAIR      40  27  59 NE6       30.47R
NEWARK         FAIR      40  28  62 E5        30.47S
MARION         FAIR      40  26  57 SE6       30.48R
LANCASTER      FAIR      42  31  64 E5        30.47S
ZANESVILLE     FAIR      39  26  59 NE5       30.46F
NEW PHILLY     FAIR      36  28  73 CALM      30.49F
$$




USA.gov is the U.S. government's official web portal to all federal, state and local government web resources and services.